Powrót do katalogu

COSMOS 839 DEB

AktywnyUNKNOWN
NORAD 10619·DEBRIS·🇷🇺 Russia

Wystrzelony Jul 8, 1976 z Plesetsk Cosmodrome

Loading…

Następne Przeloty (najbliższe 24 godziny)

TLE

ŚwieżeSource: Space-Track

Epoka: Sep 14, 2026, 21:39 UTC

1 10619U 76067AT  26257.90237373 -.00000062  00000-0 -24812-4 0  9990
2 10619  65.8284  74.4062 0670540 324.1837 190.2503 12.33185439259392

Śledź COSMOS 839 DEB w czasie rzeczywistym z AllMySat

Download on the App Store